Total_Precipitation_Accumulation
0.49 0.49 0.48 0.45 0.43 0.37 0.32 0.31 0.32 0.34 0.38 0.43 0.48 0.52 0.54 0.57 0.61 0.70 0.83 1.02 1.13 1.16 1.19 1.25 1.27 1.26 1.25 1.23 1.30 1.42 1.54 1.54 1.32 1.12 1.15 1.17 1.13 1.02 0.95 0.88 0.75 0.67 0.55
0.65 0.73 0.73 0.64 0.55 0.46 0.36 0.32 0.31 0.34 0.38 0.38 0.38 0.41 0.43 0.46 0.53 0.64 0.76 0.87 0.95 0.98 0.99 0.99 0.97 0.95 0.98 0.99 1.06 1.14 1.24 1.41 1.38 1.26 1.32 1.38 1.36 1.26 1.20 1.12 0.92 0.72 0.60
0.69 0.93 1.04 0.96 0.82 0.64 0.45 0.31 0.27 0.27 0.29 0.30 0.32 0.37 0.44 0.55 0.64 0.70 0.74 0.77 0.78 0.82 0.89 0.93 0.87 0.84 0.85 0.88 0.90 0.89 0.94 1.12 1.23 1.26 1.32 1.42 1.43 1.42 1.29 1.15 1.08 0.95 0.74
0.64 0.80 0.86 0.80 0.70 0.57 0.40 0.27 0.22 0.21 0.24 0.28 0.33 0.39 0.47 0.55 0.63 0.69 0.69 0.68 0.65 0.61 0.65 0.70 0.73 0.71 0.71 0.76 0.79 0.81 0.83 0.96 1.11 1.20 1.29 1.46 1.49 1.43 1.38 1.23 1.22 1.12 1.00
0.41 0.47 0.53 0.48 0.38 0.33 0.29 0.25 0.22 0.23 0.25 0.29 0.34 0.40 0.44 0.45 0.47 0.44 0.44 0.43 0.41 0.38 0.38 0.41 0.48 0.53 0.56 0.58 0.61 0.73 0.81 0.87 0.95 1.02 1.09 1.29 1.52 1.57 1.38 1.28 1.34 1.34 1.21
0.26 0.31 0.38 0.41 0.34 0.27 0.24 0.21 0.19 0.22 0.26 0.30 0.34 0.39 0.40 0.35 0.38 0.30 0.21 0.21 0.26 0.29 0.33 0.36 0.37 0.39 0.43 0.44 0.45 0.53 0.66 0.76 0.81 0.88 0.96 1.12 1.35 1.51 1.56 1.52 1.45 1.37 1.35
0.26 0.31 0.39 0.42 0.39 0.34 0.26 0.24 0.24 0.26 0.28 0.30 0.30 0.29 0.31 0.35 0.32 0.25 0.16 0.15 0.19 0.23 0.28 0.32 0.29 0.29 0.33 0.36 0.37 0.36 0.39 0.47 0.59 0.73 0.82 0.89 1.05 1.26 1.44 1.44 1.49 1.52 1.53
0.30 0.36 0.42 0.47 0.43 0.38 0.37 0.39 0.40 0.39 0.37 0.35 0.32 0.29 0.34 0.35 0.28 0.23 0.18 0.17 0.22 0.25 0.27 0.30 0.29 0.26 0.26 0.32 0.38 0.37 0.34 0.33 0.36 0.46 0.59 0.76 0.94 1.16 1.42 1.42 1.42 1.50 1.60
0.40 0.49 0.54 0.59 0.58 0.56 0.56 0.52 0.54 0.54 0.48 0.43 0.38 0.39 0.42 0.42 0.34 0.25 0.21 0.23 0.29 0.30 0.32 0.30 0.29 0.28 0.25 0.22 0.30 0.36 0.39 0.38 0.34 0.35 0.42 0.62 0.86 0.99 1.21 1.34 1.32 1.31 1.26
0.46 0.58 0.68 0.73 0.76 0.74 0.76 0.72 0.66 0.65 0.58 0.51 0.46 0.47 0.50 0.56 0.52 0.37 0.33 0.35 0.39 0.40 0.45 0.40 0.31 0.26 0.25 0.22 0.27 0.33 0.36 0.37 0.41 0.40 0.40 0.47 0.60 0.79 0.93 1.07 1.17 1.18 1.08
0.50 0.57 0.68 0.78 0.84 0.88 0.93 0.88 0.83 0.79 0.77 0.72 0.63 0.60 0.64 0.68 0.69 0.51 0.41 0.42 0.49 0.55 0.57 0.49 0.43 0.31 0.27 0.27 0.28 0.34 0.33 0.36 0.47 0.50 0.51 0.55 0.62 0.73 0.82 0.89 1.04 1.14 1.11
0.55 0.61 0.65 0.71 0.70 0.74 0.91 0.94 0.94 0.95 0.91 0.87 0.82 0.71 0.71 0.75 0.70 0.57 0.43 0.39 0.50 0.69 0.77 0.70 0.61 0.48 0.36 0.31 0.28 0.29 0.27 0.27 0.37 0.48 0.52 0.56 0.59 0.62 0.69 0.83 0.97 1.04 1.10
0.64 0.72 0.77 0.77 0.79 0.86 0.92 0.95 0.98 1.02 0.99 0.93 0.91 0.85 0.80 0.82 0.79 0.58 0.47 0.43 0.47 0.65 0.81 0.82 0.69 0.54 0.46 0.39 0.34 0.32 0.31 0.31 0.37 0.45 0.47 0.50 0.52 0.57 0.70 0.85 1.03 1.10 1.08
0.83 0.84 0.86 0.90 0.87 0.87 0.96 1.00 1.04 1.08 1.12 1.06 0.99 0.94 0.92 0.90 0.85 0.73 0.61 0.54 0.56 0.66 0.77 0.82 0.72 0.65 0.56 0.53 0.45 0.38 0.36 0.39 0.43 0.47 0.49 0.53 0.60 0.68 0.74 0.82 0.93 1.04 1.08
0.81 0.82 0.81 0.83 0.88 0.92 0.96 1.00 0.99 1.04 1.01 0.99 0.97 0.98 0.99 0.97 0.82 0.73 0.70 0.66 0.72 0.81 0.87 0.98 0.91 0.85 0.78 0.71 0.64 0.60 0.59 0.58 0.52 0.53 0.61 0.66 0.70 0.79 0.82 0.85 0.96 0.97 0.93
0.89 0.88 0.82 0.79 0.86 0.92 0.98 0.97 0.88 0.83 0.79 0.77 0.77 0.79 0.79 0.73 0.65 0.58 0.57 0.58 0.63 0.72 0.79 0.95 0.97 0.95 0.92 0.87 0.78 0.73 0.71 0.68 0.65 0.69 0.74 0.78 0.80 0.83 0.90 0.89 0.94 0.96 0.88
0.96 0.95 0.90 0.87 0.91 0.94 0.98 1.01 1.02 0.94 0.82 0.74 0.68 0.64 0.64 0.59 0.54 0.50 0.50 0.54 0.54 0.60 0.70 0.88 0.96 0.95 0.95 0.92 0.83 0.75 0.73 0.75 0.80 0.82 0.85 0.85 0.90 0.92 0.97 0.96 0.91 0.94 0.90
0.88 0.90 0.90 0.90 0.92 0.95 0.94 0.95 1.02 1.12 1.12 0.99 0.80 0.69 0.62 0.56 0.48 0.45 0.46 0.48 0.48 0.52 0.68 0.84 0.91 0.88 0.88 0.87 0.83 0.78 0.76 0.82 0.90 0.89 0.89 0.89 0.90 0.91 0.94 0.96 0.92 0.88 0.87
0.81 0.81 0.79 0.80 0.81 0.85 0.83 0.86 0.92 1.01 1.09 1.03 0.88 0.73 0.60 0.53 0.47 0.43 0.43 0.43 0.49 0.58 0.73 0.81 0.85 0.86 0.80 0.79 0.81 0.78 0.77 0.81 0.91 0.96 0.93 0.93 0.93 0.94 0.93 0.90 0.93 0.92 0.83
0.77 0.73 0.73 0.74 0.72 0.71 0.71 0.75 0.81 0.89 0.95 0.92 0.85 0.75 0.63 0.59 0.53 0.47 0.43 0.44 0.53 0.64 0.74 0.81 0.85 0.84 0.77 0.79 0.82 0.80 0.79 0.86 0.96 0.99 0.96 0.97 1.01 1.01 0.93 0.90 0.92 0.93 0.84
0.76 0.68 0.63 0.64 0.64 0.64 0.68 0.72 0.76 0.79 0.84 0.81 0.73 0.61 0.54 0.52 0.47 0.44 0.45 0.50 0.60 0.70 0.77 0.81 0.81 0.78 0.76 0.79 0.83 0.86 0.84 0.90 0.97 0.99 0.99 1.02 1.06 1.05 0.97 0.93 0.89 0.89 0.87
0.76 0.66 0.58 0.55 0.57 0.59 0.60 0.68 0.74 0.75 0.73 0.70 0.65 0.52 0.51 0.50 0.44 0.41 0.44 0.50 0.57 0.68 0.70 0.70 0.73 0.74 0.73 0.74 0.80 0.86 0.90 0.94 1.01 1.02 0.99 1.00 1.02 1.02 1.02 0.98 0.96 0.92 0.91
0.79 0.65 0.55 0.50 0.52 0.52 0.55 0.64 0.72 0.70 0.64 0.60 0.56 0.52 0.52 0.55 0.46 0.44 0.49 0.57 0.63 0.65 0.63 0.63 0.67 0.71 0.71 0.72 0.72 0.79 0.84 0.89 0.93 0.93 0.98 1.00 0.99 0.97 0.97 0.92 0.91 0.90 0.89
0.78 0.68 0.59 0.49 0.49 0.54 0.55 0.60 0.62 0.61 0.55 0.50 0.48 0.48 0.50 0.54 0.51 0.49 0.54 0.65 0.64 0.58 0.56 0.59 0.62 0.64 0.67 0.71 0.70 0.70 0.72 0.77 0.76 0.78 0.81 0.86 0.88 0.89 0.90 0.87 0.86 0.84 0.85
0.77 0.69 0.59 0.49 0.46 0.49 0.52 0.57 0.60 0.59 0.54 0.47 0.45 0.46 0.49 0.52 0.50 0.50 0.54 0.57 0.55 0.51 0.47 0.52 0.57 0.58 0.60 0.62 0.63 0.63 0.61 0.58 0.59 0.64 0.68 0.73 0.77 0.83 0.87 0.86 0.86 0.85 0.84
0.71 0.64 0.57 0.49 0.42 0.42 0.49 0.55 0.56 0.56 0.53 0.49 0.48 0.49 0.48 0.48 0.46 0.42 0.42 0.43 0.44 0.44 0.45 0.50 0.56 0.57 0.60 0.61 0.53 0.50 0.46 0.42 0.45 0.53 0.57 0.65 0.74 0.80 0.82 0.86 0.86 0.87 0.84